sat.trackr.live / text

‹ back to catalog

STARLINK-36807

NORAD 67810 · 2026-032P

PAYLOAD ACTIVE UNKNOWN

§ Identity

Operator
Country
US
Launch date
2026-02-15
Launch site
AFWTR
Launch vehicle
Mass (kg)
RCS (m²)

Purposes: comms

External: N2YO · Heavens-Above · Gunter

§ Orbital elements

Epoch: 2026-05-24T23:30:57.769056Z

Period
93.91 min
Inclination
97.2861°
Eccentricity
0.0001181
Mean motion
15.33451512 rev/d
Perigee alt
464.7 km
Apogee alt
466.3 km
Semi-major
6,843.7 km
B*
7.2740e-4
RAAN
333.0970°
Arg perigee
96.4966°
Mean anomaly
263.6411°
Rev number
1,665

§ Raw data

STARLINK-368071 67810U 26032P   26144.97983529  .00023486  00000+0  72740-3 0  99992 67810  97.2861 333.0970 0001181  96.4966 263.6411 15.33451512 16654

JSON: /api/v1/satellites/67810 · /tle

For live sub-satellite position, see the globe view (requires WebGL).

§ Visibility from observer

Set your observer location to see the next 7 days of passes ≥ 10°. The values pass through the URL so the page stays shareable.

No JS? Fill the form by hand. The geolocation button needs JavaScript.